GEFSMA_500_meanwind_096.txt.gz
Wind_Speed
27 27 28 29 29 30 30 30 31 31 32 32 33 33 34 34 35 35 36 37 37 38 38 39 39 40 41 41 42 43 44 44 45 45 46 46 46 47 47 47 47 47 47
28 28 29 30 30 30 31 32 32 33 33 34 34 34 35 36 36 36 37 38 38 39 39 40 40 41 41 42 42 43 44 45 46 47 47 48 49 49 50 50 51 51 51
29 29 30 30 31 31 32 33 33 34 35 35 36 36 37 37 38 38 39 39 39 39 40 40 41 41 42 43 43 44 45 46 46 47 48 49 50 50 51 52 52 53 53
29 30 30 31 32 32 33 34 34 35 35 36 36 37 37 38 39 39 39 40 40 40 40 40 41 41 42 43 44 44 45 46 47 48 49 49 50 51 52 52 53 54 54
30 31 31 32 33 34 34 35 35 36 36 36 37 37 38 38 39 39 40 40 40 41 41 42 42 43 43 44 44 45 46 46 47 48 48 49 50 50 51 52 53 53 54
31 32 33 33 34 35 36 36 37 37 37 37 37 38 38 38 39 40 41 42 42 43 43 44 45 45 46 46 47 47 48 48 49 49 50 50 51 51 52 53 53 54 54
33 33 34 35 36 36 37 38 38 39 39 39 39 39 39 40 41 42 43 44 44 45 46 46 47 48 48 49 49 50 50 51 52 52 53 53 54 54 55 55 56 56 57
35 35 36 37 38 38 39 39 40 40 41 41 41 40 40 41 43 43 45 46 47 47 48 48 49 50 51 51 52 53 53 54 54 55 56 57 57 58 59 59 60 60 60
36 37 38 39 40 41 41 42 42 42 43 44 44 44 43 42 43 43 45 47 48 49 50 50 51 53 53 54 55 56 57 57 58 59 60 60 61 62 63 63 63 64 64
37 38 40 41 42 43 43 44 44 44 45 45 46 47 47 46 46 44 45 47 49 50 51 52 54 55 56 57 58 59 59 60 61 62 63 64 65 66 67 67 67 68 68
39 41 42 43 43 44 45 46 46 47 47 47 47 48 49 49 50 49 47 47 49 51 52 53 55 56 58 59 60 62 63 64 65 66 67 67 68 69 69 70 71 71 72
42 43 44 45 45 46 47 47 48 48 48 48 49 49 50 50 52 53 52 51 51 51 52 54 56 58 59 61 63 64 65 66 67 68 69 70 70 71 72 72 73 74 75
44 45 46 47 47 48 49 49 49 49 50 50 50 51 52 53 54 55 56 56 55 54 54 55 57 59 61 62 64 65 66 68 69 70 71 72 73 73 74 75 76 77 77
46 47 48 48 49 50 50 50 50 51 51 51 52 52 53 54 56 57 58 60 60 58 58 58 58 60 62 64 65 67 68 69 71 72 73 73 74 75 76 76 77 78 79
47 48 49 50 51 51 51 51 51 52 52 53 53 54 54 56 57 59 60 62 63 63 62 61 62 63 64 65 67 68 69 70 71 72 73 74 75 76 77 78 78 79 79
49 49 51 52 52 52 52 52 52 52 53 54 54 55 56 57 58 60 61 63 65 66 67 66 66 67 68 69 70 70 71 71 72 73 74 75 76 77 78 78 78 79 79
50 51 52 52 52 52 52 52 53 53 54 55 56 57 58 59 60 61 63 64 65 67 68 68 70 71 72 73 73 73 73 74 75 76 76 77 77 78 78 78 78 77 77
52 52 52 52 52 53 53 53 54 55 56 56 57 58 59 60 61 62 63 65 66 69 71 71 72 73 75 76 77 77 78 79 79 79 79 79 79 78 77 76 74 73 72
52 53 53 53 53 53 54 55 55 56 57 57 58 59 60 61 62 63 65 67 69 71 73 75 75 76 77 79 80 81 82 82 82 81 80 79 77 75 73 71 69 67 66
53 53 53 53 54 54 55 56 56 57 57 58 59 60 61 62 64 66 68 70 72 74 76 78 78 79 80 81 83 83 82 80 79 78 76 74 71 69 66 64 61 60 58
53 53 53 54 55 55 56 57 57 57 58 59 60 61 63 65 67 69 72 74 76 79 80 81 81 81 81 82 82 81 79 76 73 70 68 65 63 60 57 55 53 51 49
52 53 53 54 55 56 57 58 59 59 60 61 62 64 66 69 71 73 76 78 81 83 84 84 83 82 81 80 78 75 72 69 64 60 59 55 54 51 49 47 45 44 42
52 53 55 56 56 57 58 59 60 61 63 64 66 68 70 73 75 78 80 82 83 85 85 85 83 80 77 74 71 67 64 60 55 52 51 47 46 45 44 43 41 40 38
54 55 55 56 57 59 60 62 63 64 66 67 70 72 75 77 80 83 84 85 84 83 82 81 78 74 70 67 63 60 56 52 48 46 45 42 40 40 39 39 38 36 35
54 55 56 58 59 60 62 64 66 67 69 71 73 76 80 82 84 87 87 86 83 79 77 75 72 67 63 60 57 53 50 47 43 41 40 38 37 36 35 35 34 34 32
56 57 58 60 61 63 65 67 70 72 74 75 78 81 84 87 87 87 86 83 79 74 71 67 63 59 56 53 50 48 45 43 40 37 36 36 34 33 31 31 31 31 31

GEFSMA_500_meanwind_102.txt.gz
Wind_Speed
29 29 28 28 28 28 28 28 28 28 28 29 29 29 30 30 31 31 32 32 32 33 33 34 34 35 35 36 36 37 38 39 39 40 41 41 42 43 44 45 45 46 46
30 29 29 29 29 29 29 29 29 29 29 29 30 30 31 31 32 33 33 33 33 34 35 35 36 36 37 37 38 38 39 39 40 41 42 42 43 44 45 46 46 47 48
31 30 30 30 30 30 30 30 30 30 30 30 31 32 32 33 34 34 35 35 35 35 35 36 36 37 38 38 39 39 40 40 41 42 42 43 44 45 46 46 47 48 49
32 31 31 31 30 30 30 31 31 31 31 32 33 33 34 35 36 36 36 36 37 37 37 37 38 38 39 39 40 40 41 41 42 42 43 44 45 45 46 47 48 49 49
32 32 32 32 31 31 31 31 32 33 33 34 35 36 36 37 37 38 38 38 39 39 39 39 40 40 41 41 42 42 43 43 44 44 45 46 46 47 47 48 48 49 50
33 33 33 32 32 32 32 33 33 34 35 36 37 38 38 39 39 40 41 41 41 41 42 42 42 43 43 43 44 44 45 46 46 47 47 48 48 49 49 49 50 50 51
34 33 33 33 33 33 34 34 35 36 37 37 38 39 40 41 42 42 43 43 43 44 44 45 45 45 45 46 46 47 47 48 48 49 49 50 50 51 51 52 52 52 53
34 34 34 34 34 34 35 36 37 38 38 39 40 40 41 42 43 44 44 45 46 46 46 47 47 48 48 48 48 49 49 49 50 51 51 52 53 53 54 54 55 55 55
34 34 35 35 36 36 37 38 39 40 40 41 42 42 42 43 43 44 45 47 47 48 48 49 49 50 50 50 50 51 52 52 53 53 54 55 55 56 56 57 57 58 58
35 35 36 37 37 38 39 40 41 42 43 43 43 44 45 45 45 44 45 47 48 48 49 50 51 52 52 52 53 53 54 55 55 56 57 57 58 58 59 59 60 60 61
36 36 37 38 38 39 41 42 43 44 44 45 45 46 46 47 47 47 45 46 47 48 49 51 52 52 53 54 55 56 56 57 58 58 59 60 60 61 61 62 63 63 63
37 38 38 39 40 41 43 44 44 45 46 47 47 48 48 48 49 49 48 47 47 48 49 50 51 53 54 55 56 57 58 59 60 60 61 61 62 63 63 64 65 66 66
38 39 40 41 42 43 44 45 46 47 48 48 49 49 49 49 50 50 50 49 48 48 49 50 51 53 55 56 57 58 59 60 61 62 63 64 65 66 67 67 68 68 69
39 40 41 42 43 44 45 46 47 48 49 49 49 50 50 50 50 51 51 51 51 50 50 51 52 54 56 57 58 59 60 61 62 64 65 66 67 68 69 70 71 71 72
40 41 42 43 44 46 47 48 49 49 49 50 50 50 51 51 51 52 52 53 53 53 52 52 54 55 57 58 59 61 62 63 64 66 67 69 70 71 72 73 73 73 74
41 42 44 45 46 47 48 48 49 50 50 50 51 51 52 52 52 53 53 54 55 56 56 56 57 58 59 60 61 63 64 66 67 69 70 72 73 74 75 75 76 76 76
42 44 45 46 47 48 49 49 50 50 50 51 51 52 52 52 53 54 54 55 56 58 58 58 60 61 63 64 65 67 68 70 71 73 74 76 76 77 78 78 78 78 79
44 45 46 47 47 48 49 50 50 50 51 51 52 52 52 53 54 55 56 57 58 60 61 61 63 65 66 68 70 71 73 75 77 78 79 80 80 80 80 80 80 80 79
45 45 46 47 48 49 50 50 51 51 51 52 52 53 54 55 55 56 58 59 61 62 64 65 67 69 71 73 75 76 78 79 81 81 82 82 82 81 80 79 78 77 76
44 45 47 48 49 50 50 51 51 51 52 52 53 54 55 56 57 59 60 62 64 65 67 69 71 73 75 77 79 80 81 81 81 81 81 80 79 78 76 75 74 73 72
45 46 47 49 49 50 51 51 52 52 53 54 55 56 57 58 60 62 63 65 67 69 71 74 75 77 78 80 82 83 83 81 80 79 77 75 74 72 71 69 68 66 65
45 47 48 49 50 51 52 52 53 53 54 55 56 58 59 61 63 64 66 69 71 74 76 79 80 81 82 83 83 83 82 79 75 73 72 69 67 65 64 61 59 58 56
47 48 49 49 50 52 52 53 54 55 56 58 59 61 62 64 66 68 70 72 74 77 80 82 83 83 83 83 83 80 77 74 70 66 64 61 59 57 55 53 51 49 47
47 48 49 51 52 53 54 55 56 58 59 60 62 64 65 67 70 72 74 76 78 80 81 83 83 83 82 80 78 75 71 67 62 58 56 53 49 48 46 44 43 42 40
47 49 50 52 53 54 56 57 59 60 61 63 65 67 69 71 73 76 78 79 80 81 81 81 81 80 77 74 71 67 62 58 53 48 47 45 42 41 39 38 36 36 35
48 50 51 53 55 56 58 59 61 63 65 66 68 70 72 73 76 78 80 81 81 80 79 78 76 72 69 65 61 57 54 50 46 41 39 38 36 35 33 32 31 31 30

GEFSMA_500_meanwind_108.txt.gz
Wind_Speed
29 30 30 30 30 30 30 31 31 31 31 32 32 32 32 31 32 31 31 31 32 32 33 33 34 34 35 35 36 36 37 37 38 38 38 38 39 39 39 40 41 41 42
31 31 31 31 31 31 32 32 32 32 32 32 33 33 32 32 32 32 32 32 33 34 34 34 35 36 36 36 37 37 38 38 39 39 39 40 40 41 41 42 42 42 43
33 33 33 33 33 33 33 33 33 33 33 33 33 33 33 33 33 33 33 34 34 35 36 36 36 37 37 38 38 39 39 39 40 40 41 41 41 42 42 43 43 44 44
34 34 34 34 34 34 34 34 34 34 34 34 34 34 34 34 34 35 35 35 36 36 37 38 38 38 39 40 40 40 41 41 41 42 42 43 43 43 44 44 45 45 46
36 36 36 35 35 35 35 35 35 35 35 35 35 34 35 35 36 36 37 37 38 38 38 39 40 40 40 41 41 42 42 43 43 44 44 45 45 46 46 46 47 47 48
37 36 36 36 36 36 36 36 36 35 35 35 35 36 37 37 37 38 39 39 39 40 40 40 41 41 42 42 43 43 44 44 45 46 46 47 47 48 48 49 49 49 50
37 36 36 36 36 37 37 36 36 36 36 37 37 38 38 38 39 40 41 41 41 41 41 42 42 43 43 43 44 45 45 46 46 47 47 48 48 49 50 50 50 51 51
37 37 37 37 37 37 37 37 37 37 38 38 39 39 39 40 40 42 43 43 43 43 44 44 44 45 45 45 46 46 47 47 47 48 48 49 49 50 50 51 51 52 52
38 38 38 38 38 38 38 38 38 39 39 40 40 41 41 41 41 42 43 44 45 45 45 46 46 46 46 46 46 47 47 48 48 48 49 49 50 50 51 52 52 53 54
38 38 38 38 38 38 38 38 39 40 40 41 42 42 43 43 43 42 44 45 45 46 46 46 47 47 47 47 47 48 48 49 49 49 50 51 51 52 52 53 53 54 55
39 38 38 38 38 39 39 39 40 41 41 42 42 43 43 44 45 45 44 45 45 46 46 47 47 48 48 48 49 49 49 50 50 51 51 52 52 53 54 55 55 56 57
38 38 38 38 38 39 40 40 41 42 42 42 43 44 45 46 46 46 45 45 45 45 46 47 47 48 48 49 49 50 51 51 51 52 53 54 54 55 56 57 57 58 58
38 38 39 39 39 40 41 41 42 43 43 43 44 45 46 46 46 46 46 45 45 45 46 47 47 48 49 49 50 51 52 53 53 54 55 56 57 58 59 60 60 61 62
38 39 39 39 40 40 42 42 42 42 44 45 46 46 47 47 47 47 47 47 46 45 46 47 48 49 49 50 51 52 53 54 55 56 57 58 59 60 62 63 64 64 65
38 39 39 40 41 42 42 42 43 44 45 46 46 46 47 47 47 48 48 48 48 47 46 47 48 49 50 51 53 53 55 56 57 58 60 61 63 64 65 66 67 68 69
39 39 39 41 41 41 42 43 44 45 46 46 47 47 47 47 48 48 48 49 49 49 48 48 50 51 52 53 55 56 57 59 60 62 63 65 67 68 70 71 72 73 74
39 39 40 41 41 42 43 43 44 45 46 47 47 48 48 48 48 49 49 50 51 51 51 51 53 54 55 57 58 60 61 62 64 66 68 69 71 73 74 76 77 78 79
39 39 40 41 42 43 43 44 45 46 47 48 48 48 48 49 50 50 51 51 52 54 55 55 56 57 59 61 62 63 64 66 68 70 72 74 76 77 79 80 81 82 82
38 40 41 41 42 43 44 45 46 47 48 48 48 49 50 50 51 52 53 54 55 57 58 58 59 60 62 64 65 67 69 71 73 75 77 78 79 80 81 82 83 83 83
39 40 41 42 43 44 45 46 47 47 48 48 49 50 51 52 53 54 55 57 58 59 60 61 62 63 65 67 70 72 73 74 76 77 79 79 80 80 80 80 80 79 78
40 41 42 42 43 44 46 47 47 48 49 50 51 52 53 54 55 57 58 59 60 62 63 65 66 67 69 71 74 75 76 76 76 77 77 77 78 76 75 74 73 71 69
40 41 42 42 44 45 46 47 48 49 50 51 52 54 55 56 57 59 60 62 64 65 67 68 69 71 73 75 76 76 77 76 75 74 75 72 72 70 68 65 62 59 57
41 42 42 44 45 46 47 48 49 50 51 53 54 55 56 58 60 62 63 65 66 67 70 72 73 74 75 75 76 76 76 75 73 71 70 67 64 62 59 56 54 51 49
41 42 43 44 46 47 48 49 51 52 53 54 56 57 59 61 63 65 66 67 68 70 72 74 75 75 75 76 76 75 74 72 68 66 65 60 56 53 51 49 46 43 40
41 42 44 45 47 48 50 51 52 54 55 56 58 60 62 64 66 68 69 70 71 72 74 75 76 76 75 75 73 72 70 67 63 58 56 54 49 46 42 39 37 35 33
42 44 45 47 48 49 51 53 54 56 57 58 60 63 65 67 69 70 72 74 75 75 75 75 75 74 73 70 68 67 65 62 58 52 48 47 44 41 36 32 32 31 30

GEFSMA_500_meanwind_114.txt.gz
Wind_Speed
27 28 28 29 30 30 31 31 31 31 32 32 33 33 34 33 33 34 34 35 35 35 35 34 35 35 36 36 36 37 37 38 38 39 39 39 39 40 40 40 41 41 41
29 30 30 31 31 32 32 32 33 33 34 34 34 34 34 34 34 35 35 35 36 36 36 36 36 37 37 37 38 38 39 40 40 40 40 41 41 41 41 42 42 42 42
31 31 32 33 33 33 34 34 34 35 35 35 35 35 35 35 35 35 36 36 37 37 37 38 38 38 38 39 39 40 41 41 41 42 42 42 42 42 43 43 43 43 43
33 34 34 34 34 35 35 35 35 36 36 36 36 36 36 36 36 37 37 37 38 38 39 39 39 40 40 41 41 42 42 42 43 43 43 43 44 44 44 44 45 45 45
35 35 35 35 36 36 36 36 37 37 37 37 37 37 37 38 38 38 38 39 39 39 40 40 41 41 42 42 43 43 43 43 44 44 44 44 45 45 45 45 46 46 46
37 37 37 37 37 37 37 37 37 37 37 37 37 38 38 39 39 39 39 40 40 40 40 41 41 42 43 43 44 44 44 44 45 45 45 46 46 46 47 47 47 47 48
38 38 38 38 38 38 38 38 38 38 38 38 38 39 39 39 39 40 40 40 41 41 42 42 43 43 44 44 45 45 45 45 45 46 46 46 47 47 48 48 48 49 49
39 39 39 39 39 39 40 40 40 39 39 39 39 39 39 39 40 41 42 42 42 42 43 43 44 44 45 45 45 45 45 45 46 46 46 46 47 48 48 49 49 49 50
40 39 40 40 40 40 40 41 40 40 39 39 40 40 40 40 40 41 42 42 43 43 43 44 44 45 45 45 45 45 46 46 47 47 47 47 48 48 48 49 49 50 50
40 40 40 41 40 40 41 40 40 39 39 39 40 40 40 41 41 41 42 43 43 44 44 45 46 46 46 45 46 46 46 46 47 47 47 47 48 48 49 49 50 50 51
41 41 41 41 40 41 41 40 40 39 39 40 40 40 40 41 41 42 41 43 44 45 45 46 46 46 46 46 46 47 47 47 47 48 48 48 49 49 50 50 51 51 52
41 41 41 41 40 40 40 40 39 39 39 40 40 40 41 41 42 42 42 43 44 44 45 46 46 46 46 47 47 47 48 48 48 49 49 50 50 51 51 52 52 53 54
40 40 40 40 39 39 39 39 39 39 39 40 41 42 42 42 42 43 43 43 44 44 45 46 46 47 47 48 48 48 49 49 50 50 51 52 52 53 54 55 56 56 57
39 39 38 38 38 39 39 39 39 39 40 41 41 42 42 42 43 44 44 45 44 44 45 45 46 47 48 48 49 49 50 51 51 52 53 55 56 57 58 59 59 60 61
38 38 38 38 38 38 39 39 39 39 40 41 42 42 43 43 44 45 45 46 46 45 45 45 47 48 49 49 50 51 52 54 55 56 57 58 59 60 61 62 63 64 65
37 36 36 37 37 38 39 39 39 39 40 42 43 43 43 44 45 46 47 47 47 47 47 47 48 49 50 51 53 54 55 56 58 59 60 61 63 64 65 66 67 69 70
36 36 36 37 37 37 37 38 39 40 41 42 43 43 44 46 47 48 48 48 48 49 49 49 50 52 53 54 55 57 58 59 60 62 64 65 66 68 69 71 73 74 76
35 35 36 36 37 37 38 39 40 40 41 42 43 44 46 47 47 48 49 49 50 50 51 51 53 54 55 57 58 59 60 62 64 66 67 69 70 72 74 76 77 79 80
34 35 36 36 37 37 38 39 40 41 42 43 44 45 46 47 48 49 50 50 51 53 54 55 55 57 58 59 60 62 64 66 67 69 70 72 73 75 76 78 78 78 79
34 34 35 36 37 38 39 40 40 41 42 44 45 46 47 49 50 50 51 52 54 55 56 57 58 59 61 63 65 66 67 69 70 71 73 74 76 77 77 77 76 76 75
33 34 35 36 37 38 39 39 40 42 43 44 46 47 49 50 51 52 53 54 56 57 59 60 61 63 65 67 69 70 71 71 71 73 75 76 77 76 75 74 72 71 70
33 34 35 36 37 38 39 40 41 43 44 45 47 49 50 52 52 54 55 56 58 60 61 63 65 67 69 71 72 72 73 73 73 74 75 74 73 71 70 68 67 67 65
33 34 36 37 38 39 40 41 42 44 45 47 49 50 52 53 54 55 57 59 61 63 66 68 69 71 73 73 74 74 75 75 75 74 73 70 68 66 64 64 63 62 59
34 35 36 38 39 40 41 42 43 44 46 48 50 52 53 54 56 58 59 61 63 66 68 71 72 73 74 74 75 75 75 74 72 70 69 65 62 61 60 59 57 55 51
35 36 37 38 39 40 41 43 44 46 47 49 51 53 54 56 59 61 63 64 66 68 70 72 73 74 74 75 75 75 73 72 68 66 64 61 58 55 53 51 49 48 45
35 36 38 39 40 41 43 44 45 46 48 50 52 54 57 59 61 63 65 67 69 70 71 72 73 74 74 74 73 72 71 68 65 61 58 55 52 50 45 43 44 42 39

GEFSMA_500_meanwind_120.txt.gz
Wind_Speed
22 23 24 26 27 28 28 29 30 30 31 32 32 33 34 34 35 35 36 36 36 37 37 38 38 38 39 39 39 39 39 39 39 39 40 40 40 40 41 41 41 41 41
24 25 26 28 29 30 30 31 32 33 33 34 34 35 35 35 36 36 37 37 38 38 38 39 39 39 40 40 40 40 41 40 41 41 41 41 42 42 42 42 42 42 42
27 28 29 30 31 32 33 34 34 35 35 36 36 36 37 37 37 38 38 39 39 39 40 40 40 40 41 41 41 41 41 41 41 41 42 42 42 43 43 43 43 43 43
29 30 31 32 34 34 35 35 36 36 37 37 37 38 38 39 39 39 40 40 40 40 40 40 40 40 41 41 41 42 42 42 42 42 42 43 43 43 43 43 44 44 44
32 33 34 35 35 36 37 37 37 38 38 38 39 39 39 40 40 40 41 41 41 41 41 41 40 41 41 41 42 42 42 42 42 43 43 43 43 44 44 44 44 44 44
35 35 36 37 37 38 38 38 39 39 40 40 40 40 40 40 41 41 41 41 41 41 41 41 41 41 41 42 42 42 42 42 42 43 43 43 43 43 43 43 43 44 44
37 38 38 39 39 39 39 39 39 40 40 40 40 41 41 41 41 41 42 41 41 41 42 42 42 42 42 42 42 42 42 42 42 43 43 43 43 43 43 43 43 44 44
39 40 40 39 39 39 39 40 40 40 41 41 41 41 41 41 42 42 42 42 42 42 42 42 42 43 43 42 42 42 43 43 43 43 43 43 43 43 43 43 43 43 44
40 40 40 40 40 40 40 40 41 41 41 41 41 41 41 41 42 42 42 42 42 43 42 42 43 43 42 42 42 43 42 43 43 42 42 42 43 43 43 44 43 43 44
40 40 40 40 40 41 41 41 41 41 41 41 41 41 41 42 42 41 42 42 42 43 43 43 43 42 42 43 43 43 43 43 43 43 43 43 44 44 44 44 44 44 44
41 41 41 41 41 41 41 40 40 40 40 40 41 41 41 42 42 41 41 42 43 43 43 43 43 43 43 43 43 43 43 43 43 43 44 44 44 45 45 45 45 45 46
40 41 41 41 40 40 40 40 40 40 40 41 41 41 42 41 41 41 42 42 43 43 43 43 44 44 44 44 44 44 44 44 44 45 45 46 46 46 47 47 48 48 49
40 40 40 40 40 40 39 39 39 39 40 40 40 41 41 41 41 42 42 43 43 43 43 44 45 45 45 45 45 45 46 46 46 47 47 47 48 49 49 50 50 51 52
40 40 39 39 39 38 38 38 38 39 39 40 40 40 41 41 42 43 44 44 43 43 44 45 45 45 45 46 46 47 47 48 48 48 49 50 51 51 52 53 53 54 55
39 38 38 38 38 38 38 38 38 39 39 39 40 41 41 42 43 44 44 44 44 45 45 45 46 46 47 47 48 48 49 49 50 51 52 53 54 54 55 56 57 58 59
38 37 37 36 36 37 37 37 38 38 39 40 41 41 42 42 43 44 44 45 46 47 47 46 47 48 49 49 50 50 51 52 53 54 55 56 57 58 59 60 62 63 64
36 36 35 35 36 36 36 37 38 38 39 39 40 41 42 43 44 45 46 47 48 48 48 48 49 50 51 52 52 53 54 55 56 57 59 60 61 63 64 65 66 68 69
34 34 34 35 35 35 36 37 38 38 39 40 41 41 42 44 45 46 47 48 49 50 50 50 51 52 53 54 55 56 57 58 60 61 63 64 65 66 68 69 70 71 72
33 33 33 33 34 35 36 37 38 39 39 40 41 42 43 44 45 47 48 49 51 51 52 52 53 54 56 57 58 59 61 62 63 64 65 66 68 69 71 72 73 73 73
32 32 32 32 33 34 35 37 38 39 40 41 41 43 44 45 46 48 49 50 51 52 53 54 56 57 58 60 62 63 63 64 64 66 67 69 70 72 73 73 73 73 73
31 31 31 32 33 34 35 36 37 39 40 41 42 44 45 46 47 49 50 51 53 54 55 57 58 60 62 63 64 65 65 65 66 68 69 71 72 73 73 73 72 71 70
30 31 31 32 33 34 35 36 38 39 40 41 43 44 46 47 48 50 51 53 54 56 58 59 61 63 64 65 66 67 68 69 69 70 71 71 72 72 71 70 69 67 66
30 30 31 32 33 34 35 37 38 40 41 42 43 45 47 48 49 51 52 54 56 58 60 62 63 65 66 67 69 69 70 71 71 72 73 71 71 69 67 66 64 62 60
30 31 32 33 34 35 37 38 39 41 42 43 45 46 47 49 50 52 54 56 58 60 62 64 66 68 69 70 71 72 72 72 72 73 72 70 66 64 62 61 60 57 55
30 31 32 33 35 36 37 38 40 41 42 44 45 47 48 50 52 54 56 58 60 62 64 66 68 69 70 72 72 73 73 73 71 69 67 64 60 58 56 55 54 52 49
31 32 32 34 35 36 37 39 40 41 43 44 46 47 49 51 53 56 58 59 61 63 66 68 69 70 71 72 72 72 72 70 67 63 60 58 56 54 51 49 49 47 45

GEFSMA_500_meanwind_126.txt.gz
Wind_Speed
22 21 21 22 23 23 25 26 27 28 29 30 31 31 32 33 34 35 36 36 36 36 37 38 38 39 39 39 39 39 39 39 39 40 40 40 40 40 39 39 39 39 39
23 23 24 24 25 25 27 28 29 30 31 32 33 33 34 35 36 36 37 37 37 38 39 39 39 39 39 39 39 40 40 40 40 40 40 40 40 40 40 40 39 39 39
25 25 25 26 27 28 29 30 31 32 33 33 34 35 36 36 37 37 37 38 38 39 39 39 39 39 39 39 40 40 40 40 40 40 40 40 40 40 40 40 40 40 40
27 27 27 28 29 30 31 32 33 33 34 35 36 36 37 37 38 38 38 38 39 39 39 39 40 40 39 40 40 40 40 40 40 40 40 40 40 40 40 40 40 40 40
29 29 29 30 31 32 33 34 34 35 35 36 37 37 37 37 37 38 38 39 39 39 39 40 40 39 40 40 40 40 40 40 40 40 40 40 40 40 40 40 40 40 40
30 30 31 32 33 34 34 35 35 36 36 37 37 37 37 37 38 38 38 39 39 39 39 40 40 39 40 40 40 40 40 40 40 40 40 40 40 40 40 40 40 40 40
32 33 34 34 35 35 35 36 36 36 37 37 37 37 37 38 38 38 38 39 39 39 40 40 39 39 39 39 40 40 40 40 40 40 40 40 39 39 40 40 40 39 40
35 35 36 36 36 36 36 37 37 37 38 37 37 37 37 38 38 38 38 38 38 39 39 39 39 39 39 40 40 40 40 40 40 40 40 40 40 40 40 40 40 40 40
37 37 37 37 37 37 37 37 37 38 37 37 37 37 37 38 38 38 38 39 39 39 39 39 39 39 40 40 41 41 41 41 41 41 41 40 40 41 41 41 41 41 41
38 38 38 38 37 37 37 37 37 37 37 37 37 37 38 38 38 38 39 39 39 39 39 39 39 40 41 41 41 41 41 42 42 42 41 41 42 42 42 42 42 42 43
39 38 38 38 37 37 38 37 37 37 37 37 37 37 37 37 37 38 38 39 39 39 39 39 40 41 41 41 41 42 43 43 42 43 43 43 43 44 44 44 44 45 45
39 38 38 38 38 37 37 37 37 37 37 37 37 37 37 37 37 38 38 38 39 39 40 41 41 42 42 42 43 44 44 44 44 44 45 45 46 46 46 46 47 47 47
39 39 38 38 37 37 37 37 37 37 37 37 37 37 36 37 37 38 38 39 39 40 41 42 42 43 43 44 45 45 45 46 46 46 47 47 48 48 49 49 49 50 51
39 39 38 37 37 37 37 37 36 37 37 37 37 36 36 37 37 38 38 39 40 41 42 42 43 44 44 45 46 47 47 48 48 48 49 50 50 51 52 53 53 54 55
39 38 37 37 37 37 37 37 37 37 37 36 36 36 36 37 37 38 38 40 41 42 42 43 44 45 46 48 48 49 49 50 50 51 52 53 54 55 56 56 57 58 58
38 37 37 37 36 36 36 37 37 37 36 36 36 36 36 37 37 37 39 40 42 43 44 45 46 47 48 49 50 51 51 52 53 54 55 56 57 58 59 60 60 61 61
37 37 36 36 36 36 36 36 36 36 36 36 36 36 36 37 37 38 40 41 43 44 45 46 48 49 50 52 52 53 54 55 56 58 59 59 60 61 62 63 63 63 64
36 36 36 35 35 35 36 36 36 36 36 36 36 36 36 37 38 39 41 43 44 45 47 48 50 51 52 54 55 56 57 58 59 60 61 62 63 64 64 65 65 66 67
35 35 35 35 35 36 36 36 36 35 36 36 36 36 37 38 39 41 42 44 45 47 48 50 51 53 54 56 57 58 59 61 61 62 63 64 65 65 66 67 68 68 68
34 34 34 35 35 35 35 35 35 35 35 35 36 37 38 39 41 42 43 45 47 48 50 51 53 54 56 58 59 60 61 63 63 65 65 66 66 67 68 68 68 68 68
34 34 34 34 34 34 34 34 34 35 35 36 37 37 38 40 41 43 44 46 48 50 51 53 55 57 58 60 61 63 64 65 65 66 66 67 68 68 69 68 68 68 67
33 33 33 33 33 33 33 33 34 34 35 36 37 38 39 40 42 44 46 48 49 51 53 55 57 58 60 62 64 65 65 66 66 66 66 67 68 68 68 67 66 65 63
32 32 32 32 32 32 32 33 33 34 35 36 37 38 39 41 43 45 47 49 51 53 55 56 58 60 62 63 65 65 65 65 66 67 68 67 67 66 65 64 63 61 59
31 31 31 31 31 32 32 33 34 34 35 36 37 39 40 42 44 46 47 49 52 54 55 58 60 62 63 64 65 65 65 66 67 67 67 66 64 63 62 61 59 58 56
30 30 30 30 31 31 32 33 34 34 35 36 38 39 41 42 44 46 48 50 53 54 57 59 61 62 63 64 65 65 66 66 65 65 65 64 62 61 59 57 56 54 52
30 30 30 30 30 31 32 33 33 34 35 37 38 40 41 43 45 47 49 52 53 56 58 60 61 63 64 65 65 65 65 65 64 63 62 61 59 57 54 52 51 49 46